This is the latest recevied weather packets stored in our database for station/object F4GQK-13. If no packets are shown the sender has not sent any weather packets the latest 1 day(s).
| Time | Temp. | Humidity | Pressure | Rain* | Wind** | Luminosity | Snow |
|---|---|---|---|---|---|---|---|
| 1777962605 | 13.33° C | 97% | 1009.5 hPa | 0 mm | 2.68 m/s, 54° | 205 W/m² | - |
| 1777962305 | 13.33° C | 97% | 1009.4 hPa | 0 mm | 4.47 m/s, 54° | 164 W/m² | - |
| 1777962005 | 13.33° C | 98% | 1009.4 hPa | 0 mm | 1.79 m/s, 15° | 119 W/m² | - |
| 1777961705 | 13.33° C | 98% | 1009.6 hPa | 0 mm | 0.89 m/s, 68° | 113 W/m² | - |
| 1777961405 | 13.33° C | 98% | 1009.6 hPa | 0 mm | 1.79 m/s, 54° | 93 W/m² | - |
| 1777961104 | 12.78° C | 98% | 1009.6 hPa | 0 mm | 0.89 m/s, 63° | 74 W/m² | - |
| 1777960805 | 12.78° C | 98% | 1009.8 hPa | 0 mm | 1.79 m/s, 353° | 77 W/m² | - |
| 1777960504 | 12.78° C | 98% | 1009.6 hPa | 0 mm | 2.24 m/s, 46° | 73 W/m² | - |
| 1777960205 | 12.78° C | 99% | 1009.5 hPa | 0 mm | 0.89 m/s, 27° | 70 W/m² | - |
| 1777959904 | 12.78° C | 99% | 1009.5 hPa | 0 mm | 0.89 m/s, 15° | 63 W/m² | - |
| 1777959604 | 12.78° C | 99% | 1009.6 hPa | 0 mm | 1.79 m/s, 42° | 51 W/m² | - |
| 1777959305 | 12.78° C | 99% | 1009.6 hPa | 0 mm | 2.68 m/s, 6° | 46 W/m² | - |
| 1777959004 | 12.78° C | 99% | 1009.7 hPa | 0 mm | 0.89 m/s, 75° | 37 W/m² | - |
| 1777958707 | 12.78° C | 99% | 1009.7 hPa | 0 mm | 0.89 m/s, 79° | 43 W/m² | - |
| 1777958405 | 12.78° C | 99% | 1009.5 hPa | 0 mm | 1.79 m/s, 50° | 33 W/m² | - |
| 1777958105 | 12.78° C | 99% | 1009.3 hPa | 0 mm | 0.89 m/s, 19° | 31 W/m² | - |
| 1777957805 | 12.78° C | 99% | 1009.4 hPa | 0 mm | 0.89 m/s, 10° | 25 W/m² | - |
| 1777957506 | 12.78° C | 99% | 1009.4 hPa | 0 mm | 2.24 m/s, 350° | 24 W/m² | - |
| 1777957206 | 12.78° C | 99% | 1009.6 hPa | 0 mm | 2.24 m/s, 349° | 17 W/m² | - |
| 1777956906 | 12.78° C | 99% | 1009.8 hPa | 0 mm | 1.79 m/s, 9° | 14 W/m² | - |
| 1777956605 | 12.78° C | 99% | 1009.6 hPa | 0 mm | 1.79 m/s, 54° | 11 W/m² | - |
| 1777956305 | 12.78° C | 99% | 1009.6 hPa | 0 mm | 1.34 m/s, 31° | 8 W/m² | - |
| 1777956005 | 12.78° C | 99% | 1009.6 hPa | 0 mm | 1.79 m/s, 25° | 6 W/m² | - |
| 1777955705 | 12.78° C | 99% | 1009.8 hPa | 0 mm | 2.24 m/s, 1° | 5 W/m² | - |
| 1777955405 | 12.78° C | 99% | 1009.7 hPa | 0 mm | 1.79 m/s, 9° | 3 W/m² | - |
* Rain latest hour (hover to see other rain measurements)
** Current wind speed in m/s (hover to see current wind gust speed)